This demonstration page uses our WeatherBlox Daily Observations layout. Learn more.

Left ArrowRight Arrow

39.01783, -85.05884

Hourly Observations for January 9, 2020

Temp ( °F °C ) Dew Point ( °F °C ) Humidity (%) Winds ( mph kmh ) Pressure ( in mb ) Visibility ( mi km ) Precip ( " mm )
12:52 am 00:52 Mostly Clear 28 -2.2 15 -9.4 58 58 E 9 15 30.43 1031 10 16 0.00 0.00
1:52 am 01:52 Mostly Clear 28 -2.2 16 -8.9 60 60 ESE 8 13 30.43 1031 10 16 0.00 0.00
2:52 am 02:52 Partly Cloudy 27 -2.8 16 -8.9 63 63 ESE 7 11 30.44 1031 10 16 0.00 0.00
3:52 am 03:52 Mostly Clear 28 -2.2 16 -8.9 60 60 ESE 9 15 30.43 1031 10 16 0.00 0.00
4:52 am 04:52 Mostly Clear 28 -2.2 16 -8.9 60 60 ESE 9 15 30.42 1030 10 16 0.00 0.00
5:52 am 05:52 Mostly Cloudy 28 -2.2 16 -8.9 60 60 ESE 7 11 30.42 1030 10 16 0.00 0.00
6:52 am 06:52 Mostly Cloudy 27 -2.8 16 -8.9 63 63 ESE 8 13 30.42 1030 10 16 0.00 0.00
7:52 am 07:52 Mostly Cloudy 28 -2.2 16 -8.9 60 60 SE 9 15 30.42 1030 10 16 0.00 0.00
8:52 am 08:52 Mostly Cloudy 31 -0.6 16 -8.9 54 54 SE 12 19 30.42 1030 10 16 0.00 0.00
9:52 am 09:52 Mostly Cloudy 36 2.2 18 -7.8 48 48 SSE 12 19 30.42 1030 10 16 0.00 0.00
10:52 am 10:52 Mostly Cloudy 44 6.7 23 -5 43 43 SSE 12 19 30.41 1030 10 16 0.00 0.00
11:52 am 11:52 Mostly Cloudy 49 9.4 25 -3.9 39 39 SSE 13 20 30.37 1028 10 16 0.00 0.00
12:52 pm 12:52 Mostly Cloudy 54 12.2 26 -3.3 34 34 S 14 22 30.32 1027 10 16 0.00 0.00
1:52 pm 13:52 Mostly Cloudy 58 14.4 27 -2.8 31 31 S 16 26 30.27 1025 10 16 0.00 0.00
2:52 pm 14:52 Cloudy 57 13.9 28 -2.2 33 33 S 17 28 30.24 1024 10 16 0.00 0.00
3:52 pm 15:52 Cloudy 58 14.4 24 -4.4 27 27 SSW 23 37 30.24 1024 10 16 0.00 0.00
4:52 pm 16:52 Cloudy 56 13.3 26 -3.3 32 32 S 16 26 30.24 1024 10 16 0.00 0.00
5:52 pm 17:52 Cloudy 55 12.8 27 -2.8 34 34 S 23 37 30.23 1024 10 16 0.00 0.00
6:52 pm 18:52 Cloudy 48 8.9 29 -1.7 48 48 S 13 20 30.25 1024 10 16 0.00 0.00
7:52 pm 19:52 Cloudy 48 8.9 30 -1.1 50 50 S 14 22 30.24 1024 10 16 0.00 0.00
8:52 pm 20:52 Cloudy 51 10.6 29 -1.7 43 43 S 13 20 30.23 1024 10 16 0.00 0.00
9:52 pm 21:52 Cloudy 51 10.6 29 -1.7 43 43 S 15 24 30.22 1023 10 16 0.00 0.00
10:52 pm 22:52 Cloudy 53 11.7 28 -2.2 38 38 S 20 31 30.19 1023 10 16 0.00 0.00
11:52 pm 23:52 Cloudy 52 11.1 29 -1.7 41 41 S 17 28 30.18 1022 10 16 0.00 0.00

Powered by AerisWeather